GW4002 Weather Reports


time (UTC)temp
C
wind
direction
speed
KPH
gust
KPH
rain 1hr
cm
rain 24hr
cm
rain mn
cm
humidity
%
barometer
mb
20260903133036 25 7 1.6 3.2 0.25 9.50 2.49 78
20260903132252 25 0.0 0.0 0.25 9.50 2.49 80
20260903131336 25 0.0 0.0 0.25 9.50 2.49 81
20260903130041 25 0.0 0.0 0.25 9.50 2.49 83
20260903125041 24 0.0 0.0 0.00 9.25 2.26 84
20260903124043 23 65 0.0 1.6 0.00 9.25 2.26 86
20260903123219 23 71 0.0 1.6 0.00 9.25 2.26 87
20260903122253 22 0.0 0.0 0.00 9.25 2.26 87
20260903121222 22 0.0 0.0 0.00 9.25 2.26 89
20260903120049 22 0.0 0.0 0.00 9.25 2.26 90
20260903115019 21 76 0.0 1.6 0.00 9.25 2.26 90
20260903114331 21 0.0 0.0 0.25 9.25 2.26 89
20260903113158 21 0.0 0.0 0.25 9.25 2.26 89
20260903112231 21 0.0 0.0 0.25 9.25 2.26 89
20260903111324 21 0.0 0.0 0.25 9.25 2.26 89
20260903105100 21 0.0 0.0 0.25 9.50 2.26 89
20260903104617 21 0.0 0.0 0.00 9.25 2.01 88
20260903103103 21 0.0 0.0 0.00 9.25 2.01 88
20260903102136 21 0.0 0.0 0.00 9.75 2.01 88
20260903101519 21 0.0 0.0 0.00 9.75 2.01 88
20260903095625 21 0.0 0.0 0.00 9.75 2.01 88
20260903094658 21 0.0 0.0 0.00 10.01 2.01 88
20260903093730 21 0.0 0.0 0.00 10.01 2.01 88
20260903092803 21 0.0 0.0 0.00 10.01 2.01 88
20260903091250 21 0.0 0.0 0.25 10.01 2.01 86
20260903090323 21 0.0 0.0 0.51 10.01 2.01 86
20260903085048 22 0.0 0.0 0.76 10.01 2.01 85
20260903084151 22 0.0 0.0 0.76 10.01 2.01 85
20260903083224 22 0.0 0.0 0.99 10.26 2.01 85
20260903082433 22 115 0.0 1.6 0.99 10.26 2.01 85
20260903081021 22 0.0 0.0 0.76 10.01 1.75 84
20260903080024 22 0.0 0.0 0.51 9.75 1.50 84
20260903075306 22 0.0 0.0 0.51 9.50 1.24 83
20260903074026 22 0.0 0.0 0.51 9.50 1.24 83
20260903073059 22 0.0 0.0 0.25 9.25 0.99 82
20260903072152 22 0.0 0.0 0.25 9.25 0.99 82
20260903070548 22 0.0 0.0 0.25 9.50 0.99 82
20260903065621 22 73 1.6 1.6 0.51 9.50 0.99 82
20260903064653 22 0.0 0.0 0.25 9.25 0.76 81
20260903063520 22 0.0 0.0 0.25 9.25 0.76 80
20260903062553 22 0.0 0.0 0.25 9.25 0.76 79
20260903061523 23 0.0 0.0 0.25 9.50 0.76 79
20260903060557 23 0.0 0.0 0.25 9.50 0.76 79
20260903055558 23 0.0 0.0 0.00 9.25 0.51 78
20260903054632 23 0.0 0.0 0.25 9.25 0.51 78
20260903054012 23 0.0 0.0 0.25 9.25 0.51 78
20260903052634 23 0.0 0.0 0.25 9.25 0.51 77
20260903051707 23 108 0.0 1.6 0.25 9.25 0.51 77
20260903050534 23 0.0 0.0 0.51 9.25 0.51 76
20260903050225 23 0.0 0.0 0.51 9.25 0.51 75
20260903044641 24 0.0 0.0 0.25 8.99 0.25 74
20260903043733 23 0.0 0.0 0.25 8.99 0.25 74
20260903042735 24 0.0 0.0 0.25 8.99 0.25 73
20260903041612 -17 0.0 0.0 0.25 8.99 0.25
20260903040616 24 0.0 0.0 0.00 8.74 0.00 72
20260903035729 24 0.0 0.0 0.00 8.74 8.74 72
20260903034720 25 0.0 0.0 0.00 8.74 8.74 71
20260903033753 25 0.0 0.0 0.25 8.74 8.74 71
20260903032722 25 0.0 0.0 0.25 8.74 8.74 70
20260903031758 25 0.0 0.0 0.25 8.74 8.74 69
20260903030759 25 0.0 0.0 0.51 8.74 8.74 68
20260903025523 25 0.0 0.0 0.51 8.74 8.74 68
20260903024730 25 0.0 0.0 0.51 9.25 8.74 67
20260903023659 25 0.0 0.0 0.76 8.99 8.51 66
20260903022702 26 0.0 0.0 0.76 8.99 8.51 65
20260903021827 26 0.0 0.0 0.76 8.99 8.51 64
20260903020602 26 0.0 0.0 0.51 8.74 8.26 62
20260903015532 27 0.0 0.0 0.51 8.74 8.26 62
20260903014830 27 73 0.0 1.6 0.76 8.74 8.26 63
20260903013605 27 0.0 0.0 0.25 8.26 7.75 60
20260903012814 27 0.0 0.0 0.25 8.26 7.75 59
20260903011539 27 0.0 0.0 0.51 8.26 7.75 57
20260903010610 27 0.0 0.0 0.51 8.26 7.75 56
20260903005838 27 0.0 0.0 0.76 8.26 7.75 55
20260903004543 28 0.0 0.0 0.51 8.51 7.49 53
20260903003647 28 0.0 0.0 0.76 8.74 7.49 51
20260903002751 29 0.0 0.0 0.76 8.74 7.49 49
20260903001650 30 71 1.6 1.6 0.76 8.51 7.24 48
20260903000651 30 55 0.0 1.6 0.76 8.74 7.24 45
20260902235826 30 66 0.0 1.6 0.76 8.51 7.01 45
20260902234519 31 64 1.6 3.2 0.99 8.51 7.01 44
20260902233520 31 58 1.6 3.2 0.76 8.51 6.76 42
20260902232524 31 74 1.6 3.2 0.99 8.51 6.76 41
20260902231557 31 8 0.0 1.6 0.76 8.74 6.50 40
20260902230629 32 51 1.6 3.2 1.24 8.99 6.50 38
20260902225559 32 38 3.2 4.8 0.99 8.74 6.25 36
20260902224529 32 35 4.8 8.0 0.99 8.74 5.99 35
20260902223603 33 50 1.6 4.8 0.99 9.25 5.99 33
20260902222655 33 39 3.2 4.8 0.76 9.25 5.74 31
20260902221533 35 52 4.8 8.0 0.76 9.75 5.74 28
20260902220606 36 314 1.6 3.2 0.25 9.25 5.26 24
20260902215536 36 59 3.2 4.8 0.51 9.25 5.26 23
20260902214538 36 188 1.6 3.2 0.25 9.25 5.00 23
20260902213610 36 293 3.2 6.4 0.25 9.50 5.00 23
20260902212600 36 51 1.6 3.2 0.25 9.50 5.00 22
20260902211542 37 99 1.6 4.8 0.25 9.50 5.00 22
20260902210647 37 319 1.6 6.4 0.51 9.50 5.00 22
20260902205547 37 58 1.6 3.2 0.25 9.25 4.75 22
20260902204548 36 95 0.0 1.6 0.25 9.25 4.75 23
20260902203548 36 17 4.8 8.0 0.25 9.25 4.75 23
20260902202550 37 47 1.6 4.8 0.25 9.25 4.75 23
20260902201551 36 137 1.6 4.8 0.76 9.25 4.75 24
20260902200542 36 59 3.2 8.0 0.51 8.99 4.50 25
20260902195626 35 26 3.2 8.0 0.51 8.99 4.50 27
20260902194524 35 99 0.0 1.6 0.51 8.99 4.50 29
20260902193525 36 290 0.0 1.6 0.51 8.99 4.50 27
20260902192559 35 317 0.0 1.6 0.51 8.99 4.50 28
20260902191528 36 58 1.6 3.2 0.25 8.74 3.99 25
20260902190530 36 322 3.2 4.8 0.51 8.74 3.99 27
20260902185532 36 257 4.8 8.0 0.51 9.25 3.99 28
20260902184553 35 120 1.6 4.8 0.76 9.25 3.99 30
20260902183536 35 227 1.6 4.8 0.76 9.25 3.99 32
20260902182536 33 66 3.2 4.8 0.76 9.25 3.99 36
20260902181538 33 80 0.0 1.6 0.51 8.99 3.76 37
20260902180539 33 32 1.6 4.8 0.25 8.99 3.51 34
20260902175724 34 110 0.0 1.6 0.25 8.99 3.51 34
20260902174542 35 44 1.6 6.4 0.00 8.74 3.25 33
20260902173616 35 191 1.6 3.2 0.00 8.74 3.25 33
20260902172545 34 17 3.2 4.8 0.00 8.99 3.25 34
20260902171547 34 172 3.2 4.8 0.00 9.50 3.25 33
20260902170620 34 119 1.6 3.2 0.25 9.50 3.25 33
20260902165621 34 92 0.0 1.6 0.25 9.50 3.25 34
20260902164520 33 222 1.6 4.8 0.25 9.50 3.25 37
20260902163624 33 215 1.6 4.8 0.25 9.50 3.25 38
20260902162543 33 129 1.6 3.2 0.51 9.75 3.25 40
20260902161524 33 74 1.6 3.2 0.76 9.75 3.25 40
20260902160527 32 326 0.0 3.2 0.76 9.50 3.00 42
20260902155527 32 152 3.2 4.8 0.76 9.75 3.00 47
20260902154529 32 42 1.6 3.2 0.76 9.75 3.00 49
20260902153602 31 0.0 0.0 0.76 10.01 3.00 54
20260902152532 30 0.0 0.0 0.51 10.26 2.74 55
20260902151533 30 148 0.0 3.2 0.51 10.26 2.49 58
20260902150536 29 92 1.6 3.2 0.25 10.01 2.26 59
20260902145537 28 221 1.6 3.2 0.25 10.01 2.26 61
20260902144538 28 87 1.6 4.8 0.25 10.26 2.26 64
20260902143601 28 189 1.6 4.8 0.25 10.26 2.26 65
20260902142543 27 14 1.6 4.8 0.51 10.26 2.26 66
20260902141615 27 0.0 0.0 0.25 10.01 2.01 69
20260902140617 -17 0.0 0.0 0.25 10.01 2.01
20260902135650 26 0.0 0.0 0.25 10.01 2.01 73
20260902134618 26 0.0 0.0 0.25 10.01 2.01 76
20260902133620 25 0.0 0.0 0.25 10.01 2.01 78